Theta_e
303 303 306 304 303 303 303 303 303 303 304 304 304 304 304 305 305 305 306 306 306 307 306 307 308 308 309 309 310 316 319 318 319 319 321 322 321 321 319 319 319 322 325 328 333 336 339 342 343 345 346 346 342 338 344 346 340 338 341 338 332 334 335 338 344 344 343 347 349 349 349 351 351 350 350 350 350 349 349 349 349 349 349 349 351 352 353 353
305 302 305 306 304 303 303 303 304 303 304 304 304 304 305 304 305 306 306 306 306 307 307 307 308 308 309 308 311 317 318 318 320 321 323 323 325 323 321 319 318 322 324 328 333 335 335 335 338 342 342 341 337 335 342 344 338 338 341 337 334 339 339 338 342 342 344 347 349 350 349 349 350 350 350 351 351 348 350 352 352 351 351 351 352 353 353 353
309 305 303 305 306 304 304 304 304 304 304 304 304 304 305 305 305 305 306 306 307 307 307 307 308 308 308 308 312 317 318 320 322 322 323 325 325 322 322 321 318 320 321 324 327 328 328 327 333 338 335 333 332 334 339 339 339 339 339 340 339 340 339 338 340 341 343 347 349 350 348 349 349 349 349 350 350 349 351 352 352 354 352 351 351 353 354 353
310 308 305 304 306 306 305 304 304 304 303 304 304 304 305 305 305 305 306 306 307 307 307 308 308 308 308 309 313 317 319 323 321 319 323 323 322 322 322 322 320 319 320 322 323 323 323 324 330 332 329 329 329 332 336 338 340 339 339 343 340 338 339 339 338 339 343 347 349 349 349 349 348 348 347 349 350 349 350 350 351 353 353 351 350 353 354 353
310 309 308 305 305 307 307 305 304 303 304 304 304 305 305 305 305 305 306 306 307 307 308 309 309 309 308 309 314 318 319 322 318 320 322 321 323 324 324 324 322 321 321 323 324 323 322 323 327 326 326 328 328 331 334 335 338 338 339 341 339 337 339 339 337 339 344 347 348 349 349 348 348 347 347 349 350 348 348 347 349 351 352 351 350 352 354 354
309 309 309 307 305 307 308 305 303 303 303 304 304 305 305 305 305 306 306 306 307 308 308 309 310 310 308 310 316 320 320 320 321 322 322 322 324 324 326 325 323 323 323 324 325 323 323 324 325 324 325 326 328 331 331 331 334 339 338 336 337 337 339 338 337 341 344 347 348 348 348 348 348 347 347 348 347 346 345 345 348 351 352 352 353 353 352 352
309 309 309 308 305 305 307 305 303 303 303 303 304 304 305 305 305 306 306 306 308 308 309 310 312 310 309 315 320 320 320 321 322 322 322 323 323 323 325 325 324 325 324 325 325 324 323 323 323 324 324 324 328 330 330 329 331 337 336 332 333 335 338 338 338 342 345 346 348 347 347 348 349 348 347 346 345 346 344 345 349 353 355 354 353 351 351 352
309 309 309 309 307 305 306 305 303 303 303 304 304 304 304 305 305 306 307 307 309 309 310 311 312 310 311 318 321 319 318 321 321 321 323 323 323 323 325 327 328 327 325 325 325 324 323 323 322 322 323 324 327 329 328 327 329 333 332 329 331 334 337 338 338 343 345 346 346 346 348 348 348 347 346 345 345 346 346 347 351 353 354 353 351 351 352 353
309 309 309 310 309 306 304 305 304 303 303 304 304 304 304 304 305 306 307 309 309 309 311 313 313 312 314 317 318 318 319 321 321 323 323 322 323 323 325 328 329 327 325 325 324 324 322 322 322 322 324 324 327 330 326 327 329 329 328 328 330 334 337 338 339 343 345 345 346 347 348 348 346 345 346 345 347 347 347 349 351 353 352 352 351 351 352 353
309 309 308 309 309 306 303 305 304 303 303 304 304 304 304 305 305 307 308 309 310 312 315 314 312 313 316 318 318 319 321 320 321 323 324 323 323 323 324 327 328 326 324 323 323 323 322 322 322 324 325 325 327 328 325 327 328 326 329 331 331 336 338 339 341 343 344 344 346 348 348 347 345 346 347 345 348 348 349 351 352 353 353 352 351 351 354 354
309 309 308 309 309 307 304 304 304 303 303 304 304 304 305 305 306 308 309 309 313 318 318 315 312 314 317 320 318 319 320 320 322 324 324 323 322 322 324 327 327 326 324 322 322 322 322 322 324 325 325 326 327 326 325 326 324 326 334 338 337 337 338 340 342 342 344 345 345 348 348 347 346 346 348 347 348 349 350 353 353 354 354 353 352 352 355 356
309 309 308 308 308 307 305 305 303 302 303 304 304 305 305 305 307 308 309 315 321 322 319 315 313 315 319 319 318 320 320 321 321 322 322 322 322 323 324 325 326 325 324 323 322 323 322 322 324 325 325 325 327 326 325 324 324 331 338 341 340 340 341 340 342 342 344 346 345 346 346 347 349 347 348 349 348 349 351 353 353 354 354 354 354 353 354 355
308 309 308 308 308 308 306 305 303 303 303 303 304 305 305 306 308 308 314 322 325 321 318 315 315 318 320 319 320 322 322 322 322 323 324 324 323 324 324 325 325 324 323 324 324 323 322 323 323 323 323 325 327 325 326 327 330 337 341 341 342 340 340 342 342 343 345 345 346 345 337 341 351 348 349 351 349 351 352 353 353 353 354 354 354 353 353 355
308 308 308 308 308 308 307 305 303 303 303 303 304 304 306 308 307 312 321 325 322 320 317 315 317 321 321 320 323 325 324 325 325 326 326 327 325 324 325 325 324 324 323 323 324 322 322 324 322 321 322 323 326 322 325 333 336 341 340 341 342 333 334 344 343 343 347 344 346 345 331 336 351 349 349 351 349 351 352 353 353 353 354 353 354 354 353 355
308 308 308 308 308 308 307 305 303 302 303 303 304 305 307 306 309 319 325 323 321 319 317 318 321 323 322 322 325 325 326 327 326 327 328 328 325 324 325 325 325 324 324 322 321 321 321 322 321 320 321 321 323 322 328 337 340 342 333 331 338 331 333 346 344 343 348 345 346 344 333 338 348 348 350 351 350 352 352 353 353 352 353 353 353 354 353 354
307 307 307 307 307 307 306 304 303 302 303 303 304 306 307 307 316 323 323 321 320 319 320 323 323 323 324 324 325 324 326 326 325 326 326 327 325 324 324 324 324 324 324 323 321 320 321 321 321 320 321 322 322 324 331 333 335 341 332 325 331 331 333 342 343 344 347 347 347 344 339 343 347 349 351 351 351 352 353 354 353 352 353 353 353 354 353 354
307 307 306 306 306 306 305 304 302 302 302 303 305 307 307 314 322 324 323 321 321 321 323 325 324 324 324 323 324 324 326 325 324 324 324 325 325 324 323 322 322 321 321 322 321 321 321 321 320 320 321 322 323 325 324 322 325 332 334 330 332 334 333 336 342 345 345 347 349 346 345 345 347 350 351 351 351 352 353 354 353 353 353 353 353 352 354 354
307 307 307 306 306 305 304 303 302 302 302 304 306 306 313 322 325 323 324 324 322 323 325 324 324 324 322 323 325 324 323 322 322 323 323 325 325 323 322 320 320 321 320 321 321 321 320 320 320 320 321 321 324 325 318 317 325 326 328 328 329 334 335 335 340 344 346 348 349 347 347 347 348 351 351 351 352 352 354 354 353 354 353 353 354 353 353 353
307 307 307 306 306 304 303 303 302 302 304 307 306 308 317 324 324 323 325 324 320 323 326 326 326 323 321 322 322 321 321 321 321 322 324 326 325 322 320 320 320 321 321 321 320 320 319 320 320 318 319 320 323 325 321 324 333 333 332 331 328 329 333 340 344 344 347 349 349 349 347 348 349 352 353 352 352 353 353 354 354 353 353 353 353 353 353 353
306 307 307 306 305 303 302 302 301 303 305 307 306 309 316 319 320 321 320 317 315 317 317 320 322 322 321 320 319 320 320 321 322 323 325 326 325 322 319 319 319 320 321 321 320 319 320 319 319 317 319 321 322 324 325 327 335 338 337 334 333 330 331 342 347 344 347 348 348 351 348 348 350 352 354 352 352 353 353 354 354 353 354 354 354 354 353 353
306 307 306 306 305 302 301 302 301 304 307 304 305 311 313 312 314 314 311 311 312 313 313 314 317 318 318 319 319 320 320 321 322 323 325 326 325 325 322 318 320 322 320 320 319 318 319 317 318 320 320 322 322 324 325 326 334 339 335 332 332 331 333 342 346 343 346 346 345 351 349 347 349 351 353 353 353 354 353 354 354 354 354 353 354 354 353 353
306 307 306 305 304 302 301 302 302 307 307 304 305 310 311 309 309 309 309 310 310 311 312 313 314 314 316 317 318 318 319 320 321 322 324 323 324 326 324 319 322 324 318 317 319 318 318 317 319 321 320 321 322 322 323 326 333 337 334 331 328 331 335 339 343 345 345 344 344 348 346 346 348 349 351 353 353 354 353 353 353 354 354 354 354 354 354 353
306 305 305 305 303 302 302 302 304 309 306 304 306 308 309 308 305 307 309 309 311 312 312 312 313 314 315 316 317 318 318 319 320 321 323 323 323 324 323 321 322 323 318 317 319 317 315 317 320 320 317 321 322 322 324 325 329 333 333 328 325 331 333 329 336 345 346 343 344 347 344 345 348 347 351 352 352 353 352 351 352 352 353 353 352 352 353 353
305 304 304 304 302 303 302 302 306 308 304 304 306 308 309 307 305 307 309 310 313 313 314 314 314 315 317 317 318 319 319 320 320 320 323 324 323 322 323 323 322 322 319 318 319 317 316 318 319 318 318 321 322 322 325 322 322 327 331 329 326 331 333 331 337 344 345 342 345 345 336 338 346 348 350 351 351 352 352 351 352 351 351 351 351 351 352 352
304 303 303 302 302 303 301 303 307 305 304 306 307 309 309 306 305 307 310 315 316 316 318 317 316 317 318 319 319 320 320 321 321 321 324 324 322 323 322 320 322 324 320 317 317 318 318 318 318 318 318 320 322 323 324 322 319 319 327 331 331 333 335 336 340 339 334 332 341 342 329 330 343 348 349 351 352 353 352 352 352 351 351 350 351 350 350 350
302 302 301 301 302 303 303 305 306 303 305 307 309 311 308 305 306 307 313 319 318 319 322 319 319 320 320 321 320 321 321 321 322 323 323 325 323 323 323 320 322 324 319 317 319 318 318 318 317 319 319 319 321 321 323 324 318 315 322 328 330 333 333 335 338 332 325 327 340 343 330 327 334 343 349 352 353 354 353 353 352 352 352 349 350 349 349 349
301 300 300 300 303 304 307 307 305 304 307 308 309 309 306 305 307 309 316 318 315 320 324 320 320 321 321 322 321 321 319 318 322 323 323 324 323 323 324 322 322 320 317 318 318 317 319 318 317 319 319 319 320 319 322 325 318 316 324 327 328 332 333 335 335 328 327 332 338 342 335 328 327 336 350 351 351 355 354 354 352 351 351 350 349 348 348 348
300 298 299 300 302 304 305 307 305 307 307 305 307 306 305 306 308 312 317 315 316 322 324 321 321 320 320 321 322 322 319 319 322 323 323 324 323 323 324 324 323 321 319 319 317 317 319 319 318 320 319 319 319 320 323 323 320 321 326 326 327 331 333 336 333 327 331 331 328 334 336 330 327 334 349 351 349 353 354 354 353 352 352 350 349 348 347 347
298 297 298 300 302 303 305 305 306 308 305 304 305 304 305 307 311 316 316 314 318 322 321 320 320 318 320 322 322 322 321 321 322 321 324 324 323 323 323 323 323 321 319 320 321 320 318 319 319 319 319 319 320 322 322 323 323 323 324 325 327 331 334 337 334 328 330 328 324 330 331 328 326 329 341 346 345 350 353 353 353 352 351 350 350 348 347 347
298 298 297 301 303 305 305 305 306 305 304 305 305 304 306 310 315 318 317 316 318 320 319 320 320 319 321 323 323 323 323 323 322 322 323 324 322 321 320 320 321 322 319 319 323 322 320 320 320 319 321 321 322 322 322 323 323 322 324 326 326 331 335 336 334 330 328 325 325 328 330 328 324 325 336 345 346 349 351 352 351 350 351 350 350 349 347 348
298 298 297 301 304 305 305 307 306 304 305 305 305 305 309 316 318 318 320 319 315 319 320 320 321 319 319 321 320 322 324 323 323 323 324 325 323 321 320 320 320 322 319 318 320 321 320 321 321 321 322 321 321 322 322 323 323 323 327 325 321 324 327 327 327 328 325 323 323 327 331 329 322 324 337 347 348 349 350 350 351 350 350 349 349 348 347 349
298 297 298 300 304 305 306 307 305 305 305 305 305 308 313 316 315 316 320 317 314 318 321 319 320 320 319 319 319 320 323 323 322 324 325 325 324 324 323 323 322 319 316 315 317 317 319 321 320 320 322 321 321 320 321 323 323 324 325 320 316 317 319 320 321 323 322 321 323 326 330 328 325 330 341 347 346 346 347 348 350 349 349 349 349 348 348 349
297 298 299 300 303 305 306 305 305 305 305 305 306 311 315 315 314 315 316 316 315 318 321 319 319 320 319 318 319 320 321 322 322 323 324 325 325 325 324 323 323 321 317 316 314 313 316 320 319 318 320 322 321 318 317 319 322 323 321 317 315 316 317 319 321 322 322 320 321 326 329 327 325 333 344 345 343 344 345 345 346 348 349 349 348 347 347 348
298 298 300 301 304 307 308 308 308 306 306 307 308 312 315 315 317 318 315 316 318 318 319 319 319 319 318 318 318 319 320 321 322 322 323 323 323 324 323 321 322 323 321 317 314 313 313 315 318 319 320 321 322 321 319 322 322 323 325 322 317 315 315 317 319 318 318 319 321 326 328 323 321 331 342 343 341 342 341 342 344 346 347 347 346 346 346 346
298 298 300 303 306 310 312 312 311 308 306 309 308 311 314 313 316 317 317 317 317 318 318 318 320 318 317 319 319 320 319 319 321 322 323 323 322 323 324 321 321 323 321 316 315 315 312 313 319 320 319 320 321 321 323 324 320 322 327 322 317 319 319 317 318 319 318 318 322 325 325 326 330 336 341 340 339 340 339 340 342 343 345 346 345 346 345 346
298 300 302 304 308 312 313 313 312 307 307 309 306 309 311 311 313 316 319 320 318 319 318 317 319 316 314 318 320 320 319 319 320 321 321 322 322 324 325 323 321 321 321 319 318 316 312 314 320 320 318 320 321 322 323 321 318 320 320 316 319 326 324 318 316 321 319 316 321 324 323 325 330 332 339 341 339 340 341 340 340 342 345 347 346 347 346 346
302 304 305 306 310 312 312 312 311 307 308 306 305 309 309 309 312 316 320 320 317 318 317 314 316 316 314 315 318 319 319 318 319 318 318 319 320 322 324 323 321 321 323 323 320 319 316 314 320 321 319 319 320 322 323 322 322 320 315 318 323 324 326 325 318 319 319 315 319 322 319 319 319 323 337 345 340 339 342 341 341 344 346 346 346 348 347 347
303 305 307 309 311 311 311 311 309 308 308 304 306 310 310 309 311 315 317 316 314 316 317 314 315 318 315 314 315 318 318 315 316 317 316 317 319 321 323 323 321 320 322 323 322 322 319 314 317 322 322 320 320 319 320 321 323 321 319 323 323 316 319 325 320 318 318 316 318 320 320 319 317 320 330 338 341 346 346 345 344 342 344 345 345 348 349 348
304 307 309 311 311 310 310 310 309 308 307 305 307 309 310 309 309 313 314 314 314 314 315 315 316 317 317 316 316 317 317 315 316 317 315 317 318 320 322 323 322 321 320 322 323 322 321 316 315 320 321 320 319 317 314 316 320 321 322 324 323 318 319 321 319 316 316 316 316 318 319 319 321 328 332 335 346 354 350 350 349 342 342 345 345 346 348 348
305 306 306 310 310 309 310 310 309 307 306 308 308 307 310 311 310 312 313 313 313 313 314 315 316 316 316 317 316 316 318 317 316 316 316 318 319 319 322 322 322 322 319 321 323 322 323 319 314 318 319 317 317 317 315 316 318 317 317 318 318 320 321 320 320 317 315 316 317 317 317 317 326 340 341 339 347 352 351 353 353 347 342 343 345 346 348 349
305 304 305 310 311 310 311 312 310 307 306 308 308 306 307 309 310 311 312 312 312 312 313 314 315 316 316 316 315 316 318 318 317 317 317 318 318 318 321 321 322 321 318 320 321 321 323 321 315 315 315 313 316 320 321 320 321 319 317 317 317 319 318 315 317 318 315 316 318 317 314 315 328 343 343 345 347 342 346 349 347 346 342 342 344 344 347 350
305 303 304 308 309 310 312 313 313 310 307 309 310 308 309 311 311 310 310 311 312 312 312 313 314 315 315 314 315 316 317 316 316 316 316 317 318 319 320 321 322 320 320 322 320 321 326 325 319 314 316 319 320 322 321 319 323 322 320 321 322 321 317 311 313 317 316 316 318 317 313 317 337 352 341 342 346 340 345 349 344 342 343 344 344 341 346 350
305 304 305 307 308 310 312 314 316 314 310 311 313 312 314 315 314 313 312 312 312 311 312 312 313 313 313 313 313 314 314 313 314 315 316 318 319 319 321 321 319 320 323 322 321 323 327 326 320 316 320 323 321 322 322 320 321 320 319 323 322 320 319 316 321 323 318 315 316 317 314 316 341 368 352 344 347 343 344 347 344 343 344 344 343 343 348 350
305 305 307 308 309 310 313 316 317 316 314 314 315 315 315 316 316 316 315 315 314 313 312 313 313 312 313 314 313 314 314 313 315 316 316 318 320 321 321 319 319 323 324 324 325 323 323 325 321 315 316 318 318 319 319 318 320 318 320 324 321 323 324 321 329 329 319 316 317 315 313 315 340 369 357 346 343 338 338 340 341 345 347 345 344 345 349 351
306 307 307 310 312 312 314 314 313 313 314 316 316 316 316 316 316 316 315 315 316 315 315 315 315 314 314 314 314 315 315 314 314 317 318 319 321 324 324 321 323 325 324 329 330 322 324 329 323 315 314 316 315 316 316 317 320 319 322 323 321 324 323 320 323 320 316 322 322 315 313 320 342 360 350 345 345 341 342 341 339 343 345 345 345 346 349 352
307 308 310 312 313 313 313 312 311 311 312 314 316 317 316 316 317 317 317 316 317 317 317 317 318 318 317 316 315 315 316 315 314 318 321 321 321 324 327 326 326 328 334 341 336 329 334 336 328 321 319 317 317 321 325 324 319 316 319 320 321 322 323 323 321 315 319 325 321 321 323 322 331 346 347 347 347 346 349 347 345 350 349 345 347 347 349 351
307 309 312 314 312 311 311 312 311 310 311 313 316 317 317 317 317 317 318 318 318 319 319 319 320 321 320 320 320 318 317 317 317 317 319 320 321 322 324 326 326 331 343 347 337 334 334 328 326 328 326 323 324 327 329 326 319 317 318 318 320 322 322 322 317 320 331 322 312 330 346 327 325 343 350 349 351 352 355 352 351 356 353 347 346 346 347 348
308 309 311 311 311 311 312 311 311 310 311 313 314 315 315 315 316 318 319 318 317 318 319 320 320 320 321 321 321 321 321 321 320 320 320 321 322 321 321 323 325 329 336 334 331 335 329 320 322 326 324 324 326 325 326 325 322 321 320 319 321 322 321 320 319 328 337 321 313 337 357 336 330 341 343 345 351 353 358 357 351 350 350 346 344 345 345 345
307 308 308 308 309 310 310 310 310 311 313 314 314 314 315 316 318 318 317 317 318 317 318 321 322 321 323 323 324 325 324 321 321 323 324 323 324 323 322 323 325 328 330 329 333 334 327 325 329 325 319 323 325 324 325 324 322 321 321 322 322 322 321 321 323 328 333 327 324 342 354 343 335 336 339 346 350 349 353 354 346 345 347 345 345 345 345 345
305 305 306 307 307 308 308 310 311 313 313 312 312 314 316 318 318 317 315 316 319 319 319 322 322 320 321 325 327 329 328 324 324 326 327 326 326 327 326 325 327 330 330 330 333 331 326 330 337 327 318 319 322 323 323 323 321 320 320 323 322 322 322 322 324 327 329 330 332 338 342 341 339 339 344 351 353 350 349 347 345 346 347 346 345 345 345 346
303 303 305 306 307 308 309 310 311 311 311 311 312 313 314 315 315 313 314 315 316 319 320 319 318 317 319 323 327 329 326 322 322 324 325 325 326 327 328 328 328 332 335 332 331 332 330 329 332 327 318 317 321 323 322 321 322 318 317 321 321 319 320 320 323 327 327 329 332 329 327 332 338 341 341 344 348 347 347 349 350 350 347 345 347 348 347 348
302 302 304 306 307 308 308 309 309 310 310 310 313 313 312 312 311 311 315 317 315 316 317 316 314 315 318 323 326 325 320 317 318 319 320 322 323 323 325 326 327 330 336 335 331 334 335 330 328 327 320 319 323 323 320 319 318 315 317 322 322 322 323 322 324 329 330 329 329 326 325 332 342 343 340 340 343 346 349 350 352 354 352 348 348 349 348 348
Wind_Speed
20 20 19 19 20 21 21 21 22 22 22 23 23 24 24 24 24 24 24 24 23 23 22 23 22 22 22 22 22 22 23 25 24 16 11 18 21 19 21 15 9 13 17 15 18 17 13 10 10 12 10 5 4 2 6 5 3 3 2 2 3 4 5 7 10 8 6 9 12 13 13 11 11 9 5 7 8 10 9 5 6 5 6 10 15 21 23 21
20 20 21 20 20 21 21 22 22 22 23 23 24 24 24 25 25 25 25 25 24 23 23 23 22 21 21 21 20 20 23 24 20 15 14 12 12 13 15 18 13 14 18 19 21 18 12 10 12 12 7 4 4 3 5 5 5 4 1 2 3 5 5 6 11 9 7 11 14 13 13 11 11 11 8 8 10 11 9 7 7 8 11 14 19 23 22 22
21 21 21 21 21 21 21 22 22 22 23 24 24 25 25 25 26 26 25 25 25 25 23 22 22 21 20 19 16 18 20 17 12 9 5 7 11 16 8 12 16 16 18 18 20 19 14 12 16 13 6 4 3 4 4 4 6 3 2 4 4 6 6 5 11 11 8 13 15 13 12 10 11 11 8 9 13 12 10 10 10 11 13 16 19 22 22 23
23 22 21 21 22 22 22 22 22 23 23 24 25 25 25 26 26 26 26 26 26 26 24 22 21 20 19 16 13 15 14 9 6 2 2 10 17 18 12 4 12 17 18 15 15 19 16 12 16 11 5 5 2 3 5 5 4 2 4 6 2 5 6 7 13 12 9 14 16 14 12 11 11 10 8 11 13 10 10 13 14 15 17 18 19 21 23 22
24 23 22 22 23 23 23 23 23 24 24 25 25 26 26 26 26 27 27 27 27 26 25 23 21 19 16 13 10 10 8 5 2 1 6 17 19 16 14 8 8 14 17 16 12 14 13 10 12 7 4 5 4 4 5 5 4 2 5 5 1 5 5 8 13 12 11 13 14 15 14 12 11 9 10 15 12 7 9 12 14 16 18 20 20 21 21 20
24 24 23 23 23 24 24 24 25 25 25 26 26 26 26 26 27 27 28 28 28 26 25 24 20 17 14 9 6 4 3 4 5 11 16 17 15 13 11 8 9 13 18 18 13 12 10 9 11 8 5 5 6 7 4 4 4 4 5 2 2 5 4 7 12 13 14 14 15 15 13 12 12 9 11 16 8 1 3 11 13 15 18 21 22 20 19 19
24 25 25 23 24 25 24 24 26 26 27 27 27 28 27 27 28 28 28 28 27 26 25 24 19 14 9 4 1 1 2 7 17 22 17 11 14 16 8 5 10 17 20 18 14 12 10 11 11 7 6 5 5 7 3 3 3 5 4 1 3 6 6 9 14 15 17 17 15 13 12 15 15 10 11 15 5 4 3 12 14 16 19 21 20 20 19 19
24 25 26 24 24 25 25 25 26 27 28 29 29 29 29 29 29 29 28 27 26 26 25 22 16 10 5 0 0 2 3 12 22 18 10 8 14 17 11 0 11 20 22 20 17 13 10 12 11 6 6 6 5 6 4 4 4 5 6 2 1 4 6 11 14 16 16 13 12 13 14 15 12 8 12 14 4 2 9 14 15 17 18 18 19 20 18 18
25 25 26 25 25 26 26 26 27 28 28 29 29 30 30 30 30 30 28 26 25 25 24 19 12 6 3 2 0 4 6 10 12 7 7 8 12 14 11 1 14 22 19 18 18 14 10 10 9 6 5 5 6 7 5 5 5 6 5 1 2 5 8 12 14 16 14 9 12 15 13 10 7 7 10 11 4 7 12 15 16 17 17 17 17 18 17 16
26 25 26 26 26 27 27 28 28 28 29 30 30 31 31 31 32 30 27 26 24 23 20 14 8 5 5 4 2 5 8 7 6 7 8 8 10 12 9 2 16 20 14 12 14 13 9 7 6 4 3 3 5 6 4 5 2 3 3 0 3 6 9 13 14 15 12 10 15 15 11 9 8 6 7 8 8 11 13 15 16 17 17 17 16 16 16 16
26 26 27 27 27 27 29 29 29 29 30 30 31 31 31 32 32 29 27 25 21 18 14 9 6 7 7 4 5 7 7 6 6 7 9 10 12 13 8 5 17 19 12 9 10 13 10 5 7 3 1 4 6 4 3 3 1 4 7 5 3 6 8 11 14 15 11 9 12 13 10 7 7 7 7 9 12 13 15 15 17 16 15 16 16 15 13 15
27 27 27 28 28 28 29 30 31 31 31 31 31 31 32 33 30 28 26 20 15 12 8 5 6 9 6 3 9 13 13 12 11 13 15 16 17 12 5 6 16 18 14 8 7 14 10 6 8 4 1 5 6 4 2 2 1 5 7 6 6 7 8 9 11 14 12 9 12 13 8 6 10 9 6 12 13 13 15 15 16 15 14 14 15 13 12 14
28 28 28 29 29 28 29 31 32 33 32 32 32 32 33 31 28 26 20 13 9 7 4 3 7 10 4 3 9 13 16 15 16 19 19 18 16 9 4 7 15 17 15 13 11 15 11 7 5 1 2 4 4 3 2 3 3 6 5 5 8 6 6 7 7 13 11 9 16 14 5 9 14 9 8 13 14 14 14 14 15 13 12 13 13 12 12 14
28 28 28 30 30 29 30 31 33 34 34 33 33 33 31 29 27 21 13 8 6 2 1 4 8 8 3 6 10 13 14 12 13 13 12 12 9 6 7 11 15 15 12 14 13 12 11 7 3 2 2 2 2 3 3 3 2 6 5 4 6 5 7 7 7 14 10 7 16 14 7 7 11 10 10 13 16 16 15 14 15 13 12 12 12 13 12 14
29 29 29 30 30 29 30 32 34 35 34 34 34 32 28 27 23 13 5 4 3 2 4 7 8 5 2 9 11 10 8 6 6 4 5 4 5 7 10 14 16 14 11 10 6 4 8 7 3 2 2 1 1 3 4 3 2 5 4 4 5 4 7 7 7 14 11 8 14 13 7 6 6 11 13 13 15 17 15 15 15 14 14 13 12 12 12 12
30 30 31 32 30 30 32 34 36 36 35 35 33 29 26 24 14 5 3 3 2 4 6 5 6 3 4 5 3 3 4 5 2 2 5 4 3 7 11 13 11 11 9 7 3 3 5 6 2 1 1 3 4 4 4 3 4 3 2 5 7 5 6 7 7 11 9 10 14 13 7 4 2 10 15 15 16 16 14 15 16 15 14 13 11 11 11 11
31 31 32 32 32 33 34 36 37 36 36 34 30 27 22 15 5 1 3 4 2 4 5 2 2 2 5 5 4 4 3 3 3 7 10 8 5 10 13 9 5 7 7 4 4 2 2 3 2 1 1 2 3 6 6 5 6 4 2 3 6 7 8 8 8 9 10 12 15 13 9 5 2 8 14 16 17 17 14 15 16 14 13 13 11 11 11 11
31 31 31 32 33 34 35 37 37 37 37 30 27 25 16 6 2 1 3 4 2 3 3 1 2 2 4 3 3 3 2 5 11 15 12 5 6 13 11 7 6 9 7 4 3 3 2 1 1 2 4 4 5 8 8 6 7 8 6 5 5 6 8 9 9 11 14 14 15 14 13 12 4 8 13 15 17 16 15 15 15 14 14 13 12 12 12 12
31 31 31 32 34 34 37 37 36 38 33 25 24 20 7 2 1 2 2 2 1 3 2 1 4 3 5 4 4 6 8 11 13 12 5 3 9 11 7 8 9 8 6 4 4 4 3 2 2 5 7 7 8 10 9 7 10 12 9 7 8 9 9 9 7 10 16 13 14 16 15 15 8 8 12 13 15 15 14 13 12 13 13 13 12 12 12 14
32 31 30 33 34 36 38 36 38 36 24 22 26 14 2 2 1 1 1 3 5 6 8 6 6 7 10 8 5 6 9 8 6 5 4 6 10 10 4 5 6 4 5 6 5 4 4 6 7 7 8 10 11 10 7 5 9 12 8 6 10 11 9 8 7 9 15 11 13 15 11 10 6 6 11 12 14 14 14 14 13 13 13 12 13 13 14 15
33 32 32 34 36 39 37 36 39 29 15 22 22 6 2 3 2 3 5 7 8 8 12 12 11 14 13 9 5 3 4 4 5 5 6 8 11 9 3 3 6 4 3 4 4 3 4 9 9 8 9 10 11 9 7 4 6 10 10 8 9 9 6 7 7 9 14 10 9 9 8 9 5 4 9 11 14 16 17 17 15 15 14 12 14 16 15 13
33 32 34 35 38 41 36 37 36 17 11 22 14 3 3 4 3 4 4 7 9 9 13 13 11 15 16 14 13 5 2 5 6 7 9 8 6 6 3 4 7 5 4 4 3 4 6 9 9 8 7 6 5 6 8 7 8 9 8 7 8 6 3 5 6 8 11 9 7 6 9 11 5 4 9 13 15 14 15 16 15 15 15 13 15 15 14 13
32 33 35 35 40 41 36 38 26 7 16 24 8 2 4 4 8 4 4 6 9 6 9 11 9 11 12 11 12 11 9 9 7 6 11 12 5 5 6 6 6 5 5 7 6 6 7 6 7 7 6 8 5 5 9 7 6 7 7 8 7 7 7 5 6 8 9 4 2 5 7 8 4 5 9 13 15 12 12 14 13 13 14 15 16 14 14 15
33 34 34 37 42 40 38 33 13 5 24 22 4 5 5 4 14 5 4 4 7 5 6 8 6 7 8 5 8 14 10 7 6 4 11 14 6 5 7 6 7 5 5 8 8 8 5 1 6 9 7 11 9 7 10 8 6 6 8 10 7 9 11 7 7 9 7 2 2 5 5 8 7 9 10 11 13 13 11 13 14 14 15 15 14 14 14 15
34 34 36 40 41 41 39 23 5 14 29 14 5 7 3 10 16 4 3 2 5 5 3 4 3 6 6 2 9 11 6 5 8 6 9 13 9 6 5 3 4 7 7 8 6 8 6 0 6 11 9 11 10 9 11 10 7 5 8 11 8 11 11 7 11 10 5 5 6 7 6 7 7 11 12 9 11 15 12 14 16 15 15 15 14 14 15 15
35 36 39 41 39 42 34 11 8 25 23 4 7 6 4 17 17 2 3 2 4 3 1 3 3 5 5 5 7 7 5 4 7 7 8 11 12 7 4 3 1 5 7 6 3 4 4 3 6 10 11 11 10 9 11 10 8 5 7 9 8 9 10 11 14 11 5 6 8 12 10 7 4 8 11 9 11 15 14 15 18 16 15 16 14 14 15 15
37 38 40 40 38 36 21 8 18 23 9 2 4 5 12 19 11 3 3 2 3 2 0 1 2 4 4 5 8 6 3 1 2 8 11 13 11 4 5 8 2 2 5 3 3 3 3 6 6 7 11 12 11 9 10 10 9 4 5 11 11 9 11 14 13 10 6 2 5 12 10 7 7 5 7 10 12 13 15 17 18 17 17 18 17 17 16 16
39 40 40 40 38 30 14 13 19 12 3 3 5 10 16 14 3 4 1 2 1 0 1 1 0 3 2 2 7 4 2 0 1 4 9 13 10 2 6 11 9 7 7 6 7 2 4 9 9 9 9 9 8 7 9 13 9 2 4 9 11 10 12 14 12 9 5 3 4 8 7 5 8 4 5 9 11 12 17 20 20 20 20 19 19 19 19 18
41 40 40 41 40 28 11 10 13 9 9 10 9 13 15 6 3 3 1 1 1 1 0 1 1 2 2 2 7 6 4 1 1 1 5 8 7 2 4 9 10 11 10 9 9 3 3 7 10 11 9 7 7 3 10 15 8 2 7 7 5 5 8 9 8 5 4 5 8 9 10 7 8 5 5 6 8 12 16 17 18 20 20 19 19 20 20 17
42 40 40 41 35 22 10 12 18 14 11 9 10 15 11 1 3 2 3 2 2 1 0 1 1 1 2 3 4 6 6 4 1 3 5 5 5 2 1 3 6 8 7 7 10 5 1 1 4 8 7 7 7 3 8 13 8 9 10 8 7 4 3 3 1 2 4 6 8 10 15 11 8 6 6 7 9 12 12 12 14 17 19 20 18 18 19 17
43 40 39 38 30 17 7 10 13 7 2 5 12 12 5 1 2 3 4 2 2 1 1 1 1 0 1 1 2 2 5 5 2 5 5 5 5 3 4 4 3 5 5 6 7 4 3 3 3 4 4 6 7 5 6 6 6 9 7 7 7 4 2 3 2 2 5 6 6 8 14 13 11 7 6 9 12 12 12 12 14 17 19 20 19 18 18 16
44 41 38 35 28 16 12 12 11 5 3 8 12 6 3 2 3 5 2 1 2 1 1 1 1 1 2 1 2 2 3 4 4 7 8 8 7 7 9 7 6 6 6 7 6 3 6 7 3 2 3 7 9 7 6 4 5 8 6 8 7 3 4 4 3 4 5 5 2 3 9 10 10 10 7 8 11 13 14 14 14 16 18 18 18 19 16 14
45 42 36 32 26 19 20 19 16 14 13 11 7 2 3 4 5 6 5 3 2 1 1 1 1 2 4 3 2 2 2 2 4 6 8 8 8 9 8 6 11 10 4 6 8 6 6 4 4 6 4 6 11 10 7 5 6 9 8 9 8 6 6 6 3 1 4 5 1 4 8 7 5 8 12 14 17 17 14 13 13 10 9 11 15 16 15 14
44 40 35 31 24 17 14 12 11 11 9 5 2 2 5 6 3 6 9 7 2 2 0 1 3 4 3 2 3 1 1 0 1 4 6 7 8 9 6 4 10 8 3 5 7 7 8 6 7 10 4 6 12 11 7 7 7 9 8 7 8 6 6 5 5 4 4 3 1 5 6 6 4 2 5 12 15 13 11 11 11 7 5 7 10 13 15 16
43 37 33 26 15 8 6 6 7 6 6 5 3 4 8 7 2 3 7 6 3 4 2 1 3 6 4 1 1 1 1 0 2 1 5 7 7 9 8 7 9 7 5 6 4 4 9 7 5 6 3 7 11 7 6 8 8 6 4 6 8 6 5 3 2 3 3 2 2 5 4 4 3 5 7 7 8 10 10 10 10 11 10 8 9 13 15 15
43 37 27 17 9 8 8 7 7 10 8 4 5 7 7 4 2 3 3 3 4 2 2 1 1 4 5 2 1 1 1 1 2 1 3 4 4 7 9 7 10 11 9 7 3 3 6 5 4 4 3 7 10 7 8 8 6 4 5 7 4 3 5 4 1 1 2 4 4 4 4 3 2 8 9 7 8 11 10 9 11 12 11 11 11 13 14 15
40 30 18 13 12 11 8 5 10 12 6 4 7 8 5 3 3 3 2 1 2 2 2 3 3 3 3 2 3 1 1 1 1 2 1 2 3 5 7 6 10 14 13 9 5 3 4 5 6 9 10 10 7 8 11 10 6 5 7 8 4 2 2 2 3 3 3 7 4 4 7 6 3 4 3 2 7 12 11 11 11 8 10 13 13 13 15 16
29 18 10 10 11 8 3 4 11 10 4 5 9 7 5 5 4 3 2 1 1 1 3 5 3 2 2 2 2 1 2 2 0 2 1 3 2 4 7 6 9 14 15 12 6 3 5 5 4 9 13 9 5 6 10 10 5 1 4 9 6 3 5 2 4 5 5 7 4 4 7 6 6 5 2 4 6 8 11 10 8 8 11 13 13 14 15 15
17 8 4 3 7 7 4 8 9 5 3 7 9 7 4 5 5 3 3 2 2 2 3 5 3 2 2 2 2 2 1 2 1 2 2 3 2 3 5 4 7 13 15 14 8 4 5 6 4 4 6 5 6 7 10 10 6 1 3 8 3 3 5 4 4 4 6 7 4 5 6 4 6 6 6 10 8 7 11 9 7 11 13 13 12 13 13 13
7 3 2 2 7 10 10 8 5 3 5 5 6 5 2 4 5 4 4 4 3 3 3 4 4 4 4 3 3 3 2 3 4 2 2 2 2 3 4 3 5 7 11 13 10 6 5 6 6 2 2 4 6 8 11 12 9 5 7 8 4 2 1 3 3 2 4 6 5 6 7 4 4 5 9 12 10 9 11 10 8 9 11 13 12 12 12 13
4 2 1 3 6 9 6 3 3 3 4 3 3 4 2 3 4 4 4 5 5 4 3 4 6 5 4 5 5 3 3 4 5 4 3 3 3 3 4 5 5 5 5 7 8 6 5 5 6 4 4 7 8 9 12 15 12 10 9 8 9 7 4 5 6 3 2 4 4 5 7 5 5 6 9 10 10 11 11 10 8 8 9 10 10 11 12 12
3 2 3 3 2 1 1 4 4 2 4 4 2 4 5 5 5 5 4 4 5 5 3 4 5 5 4 5 4 4 4 5 6 6 5 6 8 6 3 2 4 5 4 4 7 8 4 3 6 8 7 9 8 6 7 11 13 13 12 11 11 9 8 9 8 4 4 3 1 1 6 4 4 5 8 10 10 10 8 6 7 10 9 6 6 10 11 11
2 5 9 9 6 6 3 3 3 3 5 5 5 5 5 4 4 4 4 4 5 5 4 4 6 7 7 7 7 7 7 6 8 8 7 7 10 10 7 2 2 2 2 3 6 8 5 2 5 7 6 6 5 2 2 2 7 12 13 12 12 12 13 11 5 3 5 5 4 2 5 5 3 2 4 6 7 7 6 6 8 10 8 3 5 8 9 10
4 6 8 6 4 7 3 3 2 3 4 4 6 7 6 5 5 5 6 5 4 4 4 5 6 7 7 8 9 9 8 7 8 10 9 7 6 7 8 6 3 3 5 4 3 5 5 4 5 6 5 5 6 6 5 3 5 8 8 9 12 16 14 7 1 2 5 8 10 7 6 5 3 1 2 5 7 9 10 8 8 8 7 4 5 6 7 9
5 4 4 4 3 6 3 2 2 2 3 5 5 7 7 6 6 8 10 8 6 5 4 4 6 7 7 7 8 9 10 9 7 7 7 7 4 3 4 5 5 5 7 6 5 5 4 4 6 8 9 9 9 9 7 5 5 4 4 6 10 15 14 7 3 5 7 6 8 9 6 4 2 1 3 5 6 9 12 10 7 7 8 7 5 6 7 8
4 3 3 3 1 3 3 1 2 3 4 5 5 4 5 6 6 7 10 10 10 9 7 6 5 5 7 9 9 9 11 12 10 7 5 5 4 2 1 2 4 6 9 10 9 6 2 3 8 10 10 10 9 7 6 6 7 7 8 10 11 13 14 9 5 7 5 4 6 9 6 5 6 6 6 8 8 9 11 9 7 8 9 8 6 6 6 7
2 2 2 3 2 2 1 1 3 4 5 4 4 3 4 7 6 4 7 7 7 9 8 7 8 8 8 9 10 10 11 12 13 12 9 8 6 4 3 4 5 7 8 8 8 7 2 4 11 13 13 13 14 12 10 11 13 14 14 15 14 14 15 14 11 8 6 5 8 8 6 8 10 8 9 10 9 8 9 10 9 7 6 5 5 6 7 8
2 2 2 4 3 3 2 3 5 8 7 4 3 4 7 8 7 4 3 3 3 6 7 6 9 12 10 8 7 7 7 9 11 10 9 8 8 7 7 7 7 5 5 5 4 5 3 6 10 13 15 16 18 17 12 12 13 15 17 18 17 17 17 16 15 10 8 7 11 7 8 11 10 9 11 11 10 11 11 9 7 4 4 5 6 9 11 11
3 3 3 4 3 4 6 7 8 9 8 5 4 5 7 9 8 5 3 4 4 4 7 7 6 5 6 6 4 4 6 7 8 7 6 8 8 6 6 7 6 4 1 3 2 2 2 5 6 9 14 15 17 16 12 12 12 13 15 17 17 19 20 19 18 16 14 13 12 9 11 13 11 11 11 9 8 8 5 3 4 5 7 8 10 11 12 13
2 2 3 4 4 6 7 7 6 6 6 5 5 5 5 6 5 6 5 5 4 2 4 4 2 4 5 5 5 7 6 3 5 4 3 7 7 5 5 5 3 3 0 3 3 1 1 2 1 5 9 11 13 14 12 14 15 15 16 16 15 16 17 17 16 14 12 11 9 7 8 9 8 8 7 4 2 2 3 5 7 8 9 10 11 13 13 13
3 4 4 4 5 5 6 5 4 5 5 4 4 3 3 3 5 9 8 7 9 7 1 3 6 7 5 4 6 7 2 4 7 8 7 7 6 3 3 2 1 2 0 3 3 3 2 2 0 2 4 6 7 9 12 15 16 17 19 17 14 12 12 12 11 9 10 10 8 7 6 6 7 7 6 5 3 4 8 9 8 7 8 11 12 12 12 13
4 5 4 4 5 4 5 5 4 4 4 2 2 4 5 5 7 10 7 4 6 7 3 7 10 8 5 4 4 2 4 8 10 11 9 9 9 8 6 4 3 4 1 2 1 2 3 3 3 1 3 4 2 3 6 8 9 11 14 16 15 13 10 10 9 9 11 11 9 8 8 7 7 6 6 8 8 9 10 9 7 7 8 11 12 12 12 12
Wind_Direction
353 353 353 354 354 353 353 352 351 351 351 350 349 348 348 348 346 343 341 339 338 338 336 332 332 332 330 331 329 327 325 321 319 314 288 292 303 288 266 259 232 195 187 177 162 147 148 169 155 153 156 168 216 187 172 185 192 189 194 215 190 193 194 185 185 175 148 156 164 167 172 162 151 156 133 129 130 137 145 122 119 94 97 126 126 136 146 150
352 351 350 350 351 351 351 351 349 350 349 348 347 346 346 346 344 342 338 336 335 334 333 330 328 328 327 327 327 327 326 320 313 293 286 315 343 323 269 238 225 196 182 176 170 157 154 173 160 157 161 172 202 175 163 170 187 192 168 218 221 197 187 191 186 170 158 163 162 167 172 167 156 154 158 155 144 152 150 128 127 114 114 122 130 140 148 153
350 350 349 348 347 348 349 349 349 349 348 346 345 343 343 343 342 340 336 333 331 330 330 327 325 325 323 325 326 329 329 320 307 283 300 19 7 349 330 222 218 207 196 190 187 184 182 173 162 161 174 202 192 183 187 166 183 198 202 234 234 192 185 193 186 178 171 157 156 165 168 169 158 153 176 168 154 170 169 151 155 145 139 139 141 148 153 157
349 348 348 347 345 346 346 347 348 347 347 345 343 342 341 340 340 338 335 331 328 327 327 326 324 320 319 323 323 332 332 307 292 216 66 358 336 335 339 263 214 211 209 203 198 201 200 167 162 170 183 205 194 199 202 174 181 167 200 241 221 173 191 192 185 178 166 158 158 159 161 168 162 159 176 159 157 188 193 177 170 160 152 149 149 154 158 162
347 346 346 346 345 344 344 346 346 346 346 344 342 340 339 338 337 335 333 329 326 325 324 324 322 317 317 318 321 338 332 302 306 173 335 337 332 322 313 296 225 209 200 195 188 192 195 157 159 181 195 195 179 190 205 183 180 172 214 253 165 173 201 181 174 166 155 156 154 157 166 164 158 170 177 168 170 191 197 188 172 159 155 154 154 156 161 165
346 345 344 344 346 343 343 344 345 345 344 342 340 339 338 337 335 332 331 328 325 322 322 322 321 315 312 312 325 339 303 287 296 296 313 332 346 336 305 274 233 201 188 188 173 169 180 162 169 189 193 194 185 190 201 171 186 221 223 259 192 204 217 167 163 158 150 155 162 166 164 148 159 180 180 183 191 3 176 175 162 156 156 154 154 157 164 169
345 344 343 344 345 344 343 343 344 344 342 341 338 337 337 335 333 330 328 326 324 320 319 320 318 311 306 317 345 312 232 250 276 292 305 329 356 352 331 257 215 188 179 180 166 165 173 175 184 185 182 189 190 196 186 146 187 233 226 258 229 222 213 168 160 160 157 165 167 159 151 157 175 176 175 193 218 359 139 153 151 151 154 155 156 163 168 171
345 343 342 341 342 343 342 342 344 343 340 339 336 336 336 334 332 330 327 323 321 318 316 318 314 301 286 125 149 285 228 253 278 288 284 311 349 355 359 13 189 179 177 178 167 164 170 178 183 172 189 194 182 182 163 155 187 218 223 240 211 211 195 167 160 164 161 160 151 149 161 172 176 154 171 195 205 85 143 140 145 149 154 161 163 167 170 172
344 343 341 340 339 341 341 341 343 342 340 337 334 334 334 333 331 328 324 320 319 316 314 315 304 279 216 149 96 283 259 262 278 262 250 302 343 351 358 73 177 175 178 182 167 160 171 184 185 185 197 188 177 174 172 204 201 199 214 242 214 199 176 166 163 164 157 146 148 156 167 166 151 136 174 197 158 126 140 139 148 154 159 166 168 170 172 173
344 343 341 339 338 339 340 340 341 341 338 335 333 333 332 331 329 326 322 318 317 313 312 310 282 223 184 171 182 266 278 280 257 234 261 303 336 343 343 184 175 176 176 179 170 164 176 187 181 199 203 169 175 163 158 204 186 155 173 24 222 186 164 167 161 159 150 148 162 160 158 157 152 164 193 194 158 143 144 146 153 160 165 169 171 173 174 176
343 342 341 339 338 338 339 338 340 341 337 334 332 331 331 330 327 324 320 317 315 312 310 300 250 198 177 177 211 251 277 277 254 256 276 291 311 323 318 191 175 178 174 175 181 174 180 183 165 172 217 165 163 158 168 204 80 136 141 85 117 145 147 163 155 156 147 148 166 146 133 146 168 211 212 169 160 155 150 153 161 167 170 171 173 173 177 181
342 341 340 339 338 338 338 337 340 340 337 333 331 330 330 328 325 321 319 318 315 311 307 282 216 179 164 192 228 251 266 269 275 278 277 283 295 305 297 184 176 180 178 174 189 191 185 156 167 177 180 160 151 161 189 193 132 156 149 100 116 129 140 158 155 163 157 150 155 131 121 179 198 216 176 150 159 160 156 158 165 171 172 172 175 175 180 185
341 341 340 338 337 336 336 336 339 340 336 333 331 330 329 327 323 320 319 317 315 314 299 230 182 166 164 234 237 262 273 271 277 280 279 279 279 275 239 181 175 177 182 180 181 197 189 144 160 147 143 177 151 149 124 117 142 148 149 131 137 139 159 165 160 167 158 148 156 152 177 212 206 201 145 152 161 157 161 165 170 175 175 175 177 179 184 187
341 340 339 338 336 336 335 336 339 340 336 333 331 329 328 325 321 319 318 317 328 327 199 162 160 157 177 256 266 284 282 272 274 278 286 277 250 221 195 179 176 173 181 185 180 196 194 154 106 96 170 221 131 140 109 91 146 141 137 146 154 171 170 162 166 169 158 151 168 179 224 224 197 180 154 162 165 163 169 172 175 178 178 180 180 183 187 189
341 340 339 337 336 335 334 336 339 339 336 333 330 328 326 322 318 321 326 339 3 127 136 133 151 156 265 273 280 289 268 254 272 288 321 290 186 170 183 182 182 183 185 192 185 190 186 161 142 170 173 149 157 170 128 108 140 147 154 167 190 198 158 159 184 180 166 161 180 190 226 245 195 169 163 170 171 171 175 175 179 181 181 185 184 188 190 189
340 340 339 338 337 336 335 336 340 339 336 332 329 328 324 319 315 326 9 33 66 134 117 126 168 183 290 287 288 285 243 226 252 336 345 326 203 170 169 171 173 178 186 199 186 117 150 161 169 207 145 156 186 172 138 137 154 180 221 176 187 190 161 167 186 195 174 154 184 203 225 256 180 166 167 171 178 178 179 179 182 184 184 186 188 191 192 190
339 339 340 339 338 337 337 338 341 340 336 333 331 328 323 316 300 345 60 76 89 134 116 104 159 201 267 275 277 274 257 230 287 321 317 312 245 173 148 148 144 147 150 159 174 132 126 166 164 163 173 169 174 168 171 182 170 185 229 177 189 184 169 165 170 195 183 162 186 209 231 246 134 161 173 175 180 182 183 184 183 186 187 188 191 194 195 195
339 338 339 339 338 338 338 339 341 340 335 334 336 331 324 312 264 126 93 78 61 146 131 89 142 230 246 235 273 274 289 297 311 314 310 321 189 172 144 130 135 137 132 114 154 183 164 166 210 180 179 175 172 184 193 184 172 181 187 183 191 187 185 182 172 181 182 182 192 197 223 237 193 158 180 181 183 187 189 187 186 187 188 189 191 195 199 201
338 338 339 338 337 338 339 339 341 339 335 338 343 337 327 330 272 144 121 71 78 218 245 180 182 268 290 271 273 281 293 299 306 300 285 111 157 167 129 117 127 132 150 153 164 188 172 146 196 194 188 185 182 192 197 180 178 184 187 191 187 188 199 188 163 166 174 187 201 197 214 228 204 167 184 186 186 193 195 190 191 191 191 191 193 197 201 205
338 338 338 337 337 338 339 339 340 338 338 347 348 342 358 358 311 151 312 248 226 246 267 253 220 259 283 283 289 303 299 280 269 255 188 144 151 156 126 113 120 125 163 170 164 174 182 187 200 199 187 180 181 190 187 177 188 182 177 203 202 198 200 173 130 151 171 187 210 210 225 234 217 183 188 188 189 197 199 196 197 195 193 194 196 200 203 209
337 337 338 337 337 338 339 339 339 336 342 352 349 351 64 9 354 333 322 276 245 232 250 248 227 243 258 266 280 352 344 268 237 230 185 152 146 160 186 142 146 167 168 150 136 129 195 208 202 191 185 180 184 183 157 148 189 185 180 198 213 213 198 160 139 151 170 192 214 215 246 250 238 203 192 189 195 202 202 200 201 198 196 197 199 203 206 208
337 337 337 337 337 338 339 339 338 334 346 353 355 60 77 47 19 302 288 294 269 220 235 246 236 252 259 256 255 249 271 260 253 231 191 167 161 180 186 157 172 176 142 141 144 156 204 218 195 177 181 172 170 177 165 162 178 189 188 191 210 206 142 132 149 150 166 198 213 195 235 246 235 215 203 199 206 211 206 203 204 201 199 201 202 204 206 204
337 337 337 338 338 337 339 339 339 334 346 347 340 117 101 54 5 306 221 292 283 228 227 239 238 252 259 257 236 207 209 228 237 226 185 177 186 181 166 167 181 160 148 179 189 183 200 220 185 162 163 160 149 173 172 162 175 188 184 192 204 175 168 187 170 157 163 190 197 171 229 251 226 216 215 209 213 218 214 209 209 206 205 207 206 204 203 202
336 337 338 339 338 337 339 339 336 332 342 341 289 155 127 357 354 354 204 271 280 267 227 220 225 238 254 270 191 184 200 208 213 213 173 171 157 152 174 166 168 171 173 186 194 205 217 265 158 155 171 177 164 168 176 172 187 195 191 204 197 166 191 204 144 144 153 140 120 151 239 258 216 215 222 211 212 219 217 211 213 214 214 215 212 209 207 205
336 337 338 340 339 337 338 338 331 331 337 341 181 154 123 335 345 351 209 280 274 275 232 198 209 226 228 191 165 176 190 209 224 210 168 172 154 140 171 151 175 192 178 173 185 220 235 320 150 161 176 188 175 173 186 186 186 201 208 211 197 176 187 162 136 147 168 212 197 174 243 260 200 214 225 199 200 216 215 213 218 216 215 217 214 213 212 210
336 338 339 340 339 338 341 342 323 328 331 330 176 179 316 330 337 306 193 324 273 264 227 180 190 203 190 157 161 169 173 210 228 199 179 182 162 144 164 148 218 199 162 157 176 237 228 157 166 175 172 183 190 190 192 189 189 202 199 194 189 176 170 157 160 173 198 220 188 179 222 256 200 213 218 194 201 214 212 217 222 217 214 215 213 213 212 211
337 338 339 339 339 340 344 311 313 324 322 188 199 247 308 322 326 201 191 315 264 240 165 191 187 194 186 170 173 172 175 207 182 180 192 191 172 163 195 170 160 170 136 144 202 219 179 162 178 191 180 183 195 195 188 190 196 194 162 173 177 173 171 168 172 191 203 163 155 182 210 253 255 233 187 188 207 214 215 221 223 219 217 215 213 213 211 210
337 337 338 338 335 334 323 288 305 314 253 269 285 292 311 317 290 187 246 309 238 100 172 203 173 177 149 157 192 216 311 288 154 181 189 192 184 185 204 183 170 164 150 177 211 180 158 186 187 185 191 197 199 186 172 184 201 197 136 169 177 179 180 175 183 200 187 159 189 190 188 233 254 243 134 180 208 218 221 221 221 220 216 214 213 211 212 211
337 336 336 336 331 328 320 272 275 282 287 293 300 312 322 317 208 199 296 249 229 22 129 191 160 156 91 135 212 255 303 262 296 70 152 187 209 227 199 183 168 165 165 193 216 196 168 206 193 185 197 203 203 175 167 185 202 133 120 130 134 157 171 175 196 192 148 203 219 185 178 211 252 229 148 168 211 224 226 221 220 219 215 214 212 210 211 209
336 334 335 335 327 323 323 270 268 289 302 293 316 327 325 271 188 202 188 214 294 359 196 225 174 168 115 146 218 242 245 262 313 121 136 167 208 230 110 129 152 164 165 202 218 212 200 214 176 194 207 192 190 180 181 190 172 129 125 112 92 90 121 131 176 144 151 220 227 190 186 205 253 237 169 182 215 217 218 221 221 217 215 215 212 210 208 203
334 333 334 330 319 306 298 272 278 308 342 312 334 330 303 183 192 215 194 216 306 234 200 244 164 124 110 139 298 240 219 250 208 154 159 169 182 173 137 121 136 165 170 197 209 212 235 218 165 207 213 174 182 192 198 198 160 148 143 133 126 105 121 114 82 172 199 222 227 202 192 203 240 243 181 202 223 217 215 221 218 212 212 213 211 209 207 201
333 332 331 325 314 285 251 263 278 273 257 310 329 315 210 180 228 218 191 263 268 199 144 168 153 349 313 231 240 234 225 242 202 173 170 177 183 180 179 175 164 175 192 193 187 196 227 220 196 234 208 176 187 191 188 190 182 182 164 158 168 160 170 179 174 196 213 226 241 178 187 205 241 255 243 232 237 232 226 227 223 214 210 210 207 206 203 197
332 332 329 324 315 285 266 276 272 260 270 289 306 278 187 225 224 187 187 213 210 73 87 155 238 292 292 298 284 248 243 222 203 190 175 175 186 190 199 187 172 182 196 185 188 191 207 223 215 221 219 184 193 197 188 178 187 194 175 172 185 176 182 192 175 183 223 230 267 128 181 214 248 256 250 243 244 240 229 233 236 227 216 212 208 206 202 199
331 333 330 323 315 297 286 286 265 254 264 259 219 175 199 226 220 176 199 215 232 341 128 150 317 302 283 305 323 318 253 181 156 196 185 172 186 197 209 201 186 186 151 169 195 196 204 220 197 197 196 173 196 211 195 160 177 198 182 185 198 182 191 197 177 194 200 201 133 134 177 210 194 231 245 236 252 258 242 237 233 225 221 210 205 204 202 203
332 334 331 323 319 318 315 293 263 223 185 171 171 200 208 213 203 178 206 218 243 283 265 95 336 315 301 256 281 347 220 261 52 205 203 181 189 195 190 194 196 187 157 176 192 184 211 231 189 189 194 174 193 207 167 158 183 197 174 201 210 182 178 190 182 196 170 150 174 172 212 231 217 307 292 246 260 268 251 239 223 215 207 191 194 199 198 202
334 337 333 326 327 324 312 288 240 194 177 176 189 210 219 215 187 179 192 202 208 236 277 294 284 273 273 240 194 161 215 267 31 280 211 194 216 198 184 186 186 186 185 186 178 158 209 226 169 176 216 196 194 177 172 193 191 159 182 207 204 147 172 179 147 88 140 213 198 173 231 249 253 283 274 247 252 253 245 235 225 215 193 187 197 194 195 199
335 337 327 317 328 326 312 270 204 186 180 194 203 214 223 218 212 209 197 177 185 136 174 231 223 214 240 223 176 156 327 326 359 325 223 206 242 197 188 190 179 190 195 191 204 194 203 217 175 186 211 211 201 185 195 205 174 155 199 182 108 53 215 192 200 171 183 223 207 169 221 225 200 243 260 242 248 250 246 234 225 205 180 198 207 192 193 198
328 321 300 305 335 345 326 197 180 177 177 206 220 233 217 208 220 219 205 148 152 131 171 209 217 191 226 224 177 168 334 331 350 338 277 217 235 179 185 189 178 192 196 195 215 202 197 225 194 196 210 194 160 192 210 204 180 208 198 160 140 202 194 169 212 193 193 222 212 185 217 226 213 215 234 241 241 252 256 241 214 199 196 207 210 198 196 195
321 307 292 341 23 33 90 147 158 176 203 201 217 230 210 215 231 227 221 197 171 186 206 219 219 215 215 204 202 216 312 308 287 318 264 216 235 184 186 196 192 196 192 189 196 163 179 226 214 191 206 172 152 194 214 205 186 51 162 166 187 228 187 184 199 184 202 221 216 201 209 214 214 209 216 233 239 247 258 255 220 211 210 209 207 198 194 192
325 301 294 57 68 73 100 130 145 203 217 206 217 221 196 221 236 238 231 224 218 215 221 217 210 220 220 223 256 257 263 262 249 258 232 207 253 222 205 207 194 193 190 188 192 173 168 219 225 170 132 175 188 198 213 211 194 185 193 186 188 196 172 205 198 170 211 215 205 219 224 196 192 206 213 225 232 230 242 254 243 225 216 212 207 195 190 192
319 296 239 112 98 90 98 175 192 198 230 248 234 226 242 244 247 263 240 214 222 235 237 217 209 213 221 231 244 232 233 247 232 230 231 225 247 238 218 210 176 144 159 182 201 199 174 194 217 197 172 203 206 194 210 219 206 196 204 198 192 189 173 202 211 187 203 220 197 219 241 213 171 195 211 218 228 230 234 245 254 255 240 224 208 197 194 192
293 281 294 303 244 155 337 246 209 201 238 253 268 252 261 262 253 259 246 206 212 227 229 220 213 209 218 231 235 220 232 250 235 232 236 229 236 244 249 197 150 138 154 191 206 199 167 166 213 218 216 216 209 182 202 224 211 201 207 205 201 202 198 210 218 178 172 218 131 200 252 230 167 190 211 215 227 237 239 236 250 262 257 236 204 202 198 191
276 285 302 306 253 225 266 247 214 220 227 249 290 277 263 267 257 252 237 211 209 210 206 210 213 217 221 223 229 227 227 243 241 230 231 233 235 240 243 212 111 132 198 210 200 183 153 150 206 224 239 238 231 179 129 229 209 206 211 204 201 210 214 221 220 169 191 197 161 197 240 211 166 178 220 235 249 257 255 232 234 253 261 235 200 202 194 188
297 279 294 310 217 200 240 265 240 249 253 278 292 276 264 260 255 254 243 230 217 199 202 207 206 217 221 214 223 221 207 220 236 225 224 231 228 238 246 240 236 226 210 208 191 174 176 187 195 211 228 232 228 213 200 199 202 213 215 203 205 208 208 213 134 152 219 198 184 214 229 191 173 126 205 244 256 259 257 240 229 248 261 240 204 198 189 184
304 264 260 287 214 197 236 308 344 313 314 319 300 277 266 251 242 243 243 247 245 226 227 229 213 219 222 211 222 224 210 218 239 228 216 221 224 251 256 227 215 224 231 228 203 184 194 189 184 201 217 219 217 217 214 199 191 217 213 197 209 206 196 182 153 206 222 190 188 221 226 184 190 233 220 226 236 249 254 247 234 243 252 241 213 196 189 184
315 286 273 297 228 206 234 309 22 358 351 338 309 279 261 254 252 238 231 237 238 230 236 241 226 226 229 225 232 234 224 225 234 236 228 223 223 225 184 192 221 251 261 248 216 195 197 189 190 200 214 220 220 216 197 179 188 210 211 201 201 203 196 188 197 216 204 158 200 221 220 210 209 206 217 223 221 235 248 247 237 238 243 237 214 197 192 187
287 287 312 336 318 273 240 107 40 358 341 324 304 306 289 276 281 253 219 222 229 224 225 230 229 228 223 221 230 236 232 230 230 237 245 247 253 265 281 297 284 278 293 279 222 187 177 212 202 203 213 219 223 218 196 190 204 209 211 211 200 194 196 199 213 210 153 165 220 209 191 215 211 197 209 219 217 226 241 242 236 235 237 227 200 187 190 189
265 278 348 347 306 281 297 325 341 331 312 291 276 287 288 284 290 284 243 261 267 220 209 217 221 224 227 224 229 233 226 225 230 235 239 242 253 268 278 281 262 254 317 310 217 175 211 227 202 205 219 222 224 223 201 196 214 213 211 213 202 193 195 201 215 205 163 203 232 200 179 208 210 203 212 217 215 218 227 231 229 229 226 208 191 191 192 189
286 278 328 344 303 285 296 302 313 308 293 285 269 260 273 281 291 309 306 302 293 219 212 221 209 216 250 252 246 236 219 222 232 228 222 230 235 241 256 263 236 208 316 319 210 162 250 242 199 205 223 228 231 230 206 197 220 223 217 214 203 199 198 200 210 204 191 214 229 198 190 207 209 208 213 216 218 224 234 237 219 215 211 198 194 198 196 190
317 299 321 337 308 289 288 289 297 299 293 286 264 253 275 284 307 342 323 276 273 241 198 219 281 353 318 272 243 228 223 256 273 257 243 240 231 212 226 250 226 189 63 18 14 357 280 267 186 194 223 234 235 232 217 208 218 226 226 220 209 204 202 204 211 203 194 213 227 204 202 217 222 222 228 239 241 237 244 232 219 213 201 190 194 200 197 194
293 283 282 298 296 285 284 290 297 298 292 273 256 283 311 310 343 340 311 250 245 262 290 19 350 343 321 275 249 230 230 342 298 277 278 267 260 249 222 247 321 280 343 62 16 325 306 293 332 163 227 241 230 236 232 216 215 227 230 223 211 204 204 208 208 194 188 203 216 215 215 230 235 223 227 245 245 232 236 234 227 216 198 195 201 200 195 195
290 280 262 267 281 281 289 299 293 277 273 275 330 338 317 312 336 332 310 262 249 261 325 7 347 331 307 280 271 276 329 318 287 274 273 262 262 269 256 245 265 276 264 115 102 331 327 310 320 316 264 265 267 269 241 209 211 230 231 222 213 202 202 211 209 200 200 201 205 211 214 225 229 203 199 222 224 225 235 235 230 221 204 202 206 201 193 189